World > North America > United States > Missouri > Wellington

Wellington, MO Hourly Weather Conditions

Feedback E-mail the Weather

Quick WX

Wellington, MO Weather Maps

°F °C°F °C
Wellington Weather Map
UTC Time: 2/9/2023, 05:40
Your Time:

Wellington, MO Regional Weather

Expires:202302090600;;045263
ASUS43 KEAX 090515
RWREAX

WEATHER ROUNDUP FOR EASTERN KANSAS AND NORTHWEST MISSOURI
NATIONAL WEATHER SERVICE KANSAS CITY/PLEASANT HILL MO
1100 PM CST WED FEB 08 2023


MOZ001>008-011>017-020>025-030>033-038>040-044>046-053-054-090600-
...NORTHERN AND CENTRAL MISSOURI...
  
CITY           SKY/WX    TMP DP  RH WIND       PRES   REMARKS
ST. JOSEPH     LGT RAIN  36  35  96 N12       29.80F FOG     WCI  28  
MOSBY          LGT RAIN  36  34  93 N8        29.75F WCI  29          
HARRISONVILLE  LGT RAIN  36  36 100 NE12      29.71F WCI  27          
WHITEMAN AFB   DRIZZLE   37  36  93 NE14      29.63F FOG     WCI  29  
CLINTON        CLOUDY    39  39 100 E9G18     29.65F FOG     WCI  33  
SEDALIA        CLOUDY    39  36  89 E10       29.71F FOG     WCI  32  
MARSHALL       MIX PCPN  36  34  93 NE12G18   29.73F WCI  27          
CHILLICOTHE      N/A     36  35  96 N9        29.77F WCI  29          
MOBERLY        LGT RAIN  37  34  87 NE14      29.75F WCI  29          
KIRKSVILLE     CLOUDY    34  33  96 NE13      29.80F FOG     WCI  25  

$$


SKY/WX - Weather  TMP - Temperature  DP - Dew Point  RH - Humidity
WIND - Wind Direction/Speed PRES - Barometric Pressure VSB - Visibility
WCI - Wind Chill Index E13G22 Wind - East Wind 13 mph/Gusts of 22 mph

Trending Headlines

Trending Entertainment Headlines

Wellington Radar Loop

Use the map search tool if you want to place a location marker on the radar map...

Wellington Quick Facts

National Two Day Weather Forecast


E-mail the Wellington Weather Forecast

Voice your opinion or tell us about page issues...